Погода в Лоцкино

Украина / Николаевская область     47°12′10″N   32°23′03″E
темп.,
°C
ветер,
м/с
пор.,
м/с
влажн.,
%
обл.,
%
осадки,
мм/ч
давл.,
гПа
погр.,
м
14 мая, пт
пт1400:00+13вюв3671100 0.0 1010132
03:00+10юв338057 0.0 100927
06:00+10юв22831 0.0 100817
09:00+17ю566093 0.0 1008555
12:00+20ююз6848100 0.0 10091102
15:00+21ююз785083 0.0 10091127
18:00+19ююз685761 0.0 1009831
21:00+14ююз4118016 0.0 1010218
15 мая, сб
сб1500:00+12ююз511840 0.0 1011203
03:00+12ю410947 0.0 1011180
06:00+12ююз49941 0.0 1011182
09:00+19юз5861100 0.0 1012673
12:00+22юз5646100 0.0 10131521
15:00+23ююз664281 0.0 10121915
18:00+21ююз455487 0.0 1012772
21:00+15юз33720 0.0 101327
16 мая, вс
вс1600:00+14з22730 0.0 101312
03:00+12ссв22770 0.0 101314
06:00+13св348498 0.0 101248
09:00+19св3461100 0.0 1012359
12:00+24всв444499 0.0 10111513
15:00+26всв3437100 0.0 10102109
18:00+23вюв2350100 0.0 100835
21:00+20ссв3349100 0.0 100720
17 мая, пн
пн1700:00+18всв4868100 0.1 1006163
03:00+16в3798100 11.3 1006254
06:00+16сз359779 1.4 1005226
09:00+18сз2383100 1.4 1005588
12:00+23зсз455724 0.2 10061508
15:00+25з364481 0.4 10062283
18:00+22зюз79604 0.0 1007870
21:00+16зсз33860 0.0 100939
18 мая, вт
вт1800:00+14з36940 0.0 1010108
03:00+13з49960 0.0 1011201
06:00+13зсз38952 0.0 1012194
09:00+18сз35650 0.0 1013573
12:00+22з34440 0.0 10131291
15:00+25юз34415 0.0 10121977
18:00+22ююз565291 0.0 1011749
21:00+16ююз48705 0.0 1011129